Regional Weather Roundup
Issued by NWS Newport/Morehead, NC

Current Version | Previous Version | Graphics & Text | Print | Product List | Glossary Off
Versions: 1 2 3 4 5 6 7 8 9 10 11 12 13 14 15 16 17 18 19 20 21 22 23 24 25 26 27 28 29 30 31 32 33 34 35 36 37 38 39 40 41 42 43 44 45 46 47 48 49 50

972
ASUS42 KMHX 031713
RWRMHX
WEATHER ROUNDUP FOR EASTERN NORTH CAROLINA
NATIONAL WEATHER SERVICE NEWPORT/MOREHEAD CITY NC
1200 PM EST SAT DEC 03 2016

NOTE: "FAIR" INDICATES FEW OR NO CLOUDS BELOW 12,000 FEET
WITH NO SIGNIFICANT WEATHER AND/OR OBSTRUCTIONS TO VISIBILITY

NCZ015>017-031-032-045>047-102-103-031800-
NORTH COAST

CITY           SKY/WX    TMP DP  RH WIND       PRES   REMARKS
EDENTON        SUNNY     52  31  44 N12       30.25S
ELIZABETH CITY SUNNY     51  29  42 NW16      30.22F
KITTY HAWK     SUNNY     50  35  56 N7        30.20S
MANTEO         SUNNY     50  32  49 N13G21    30.22S

$$

NCZ045>047-081-094-103-104-031800-
CENTRAL COAST

CITY           SKY/WX    TMP DP  RH WIND       PRES   REMARKS
FRISCO         SUNNY     51  33  50 N9G17     30.21F

$$

NCZ095-097-098-100-101-031800-
SOUTHERN COAST

CITY           SKY/WX    TMP DP  RH WIND       PRES   REMARKS
BEAUFORT       SUNNY     52  32  46 VRB7G16   30.24F
CEDAR ISLAND   NOT AVBL
JACKSONVILLE   SUNNY     51  28  41 N12       30.24F
PINEY ISLAND   SUNNY    N/A N/A N/A N15       30.23F
WILMINGTON     SUNNY     51  30  44 N8G18     30.27F


$$

NCZ011>013-027>030-043-044-078>080-089-090>093-098-031800-
COASTAL PLAIN

CITY           SKY/WX    TMP DP  RH WIND       PRES   REMARKS
AHOSKIE        SUNNY     49  28  44 NW6       30.25F
CLINTON        SUNNY     50  31  47 N7        30.28F
ELIZABETHTOWN  SUNNY     50  30  46 NE5       30.27F
GOLDSBORO      MOSUNNY   51  27  39 N9        30.25F
GREENVILLE     SUNNY     50  30  46 N8G16     30.26F
HAVELOCK       SUNNY     52  31  44 NW9       30.26F
KENANSVILLE    SUNNY     50  27  40 N9        30.27F
KINSTON        SUNNY     50  28  43 N8        30.27F
NEW BERN       SUNNY     51  29  42 N9        30.26F
RICHLANDS      SUNNY     50  29  44 N8        30.25F
ROCKY MOUNT    SUNNY     50  28  42 N7        30.27F
WASHINGTON     SUNNY     51  30  43 NW8       30.25F
WHITEVILLE     SUNNY     50  30  46 N5        30.27F

$$

AMZ130-135-150-152-154-156-158-170-250-252-270-ANZ085-086-088-633-658-670-031800-
MARINE OBSERVATIONS

STATION/POSITION TIME  TEMP    WIND        PRES    WAVE   SWELL
                       AIR SEA DIR/SP/G            HT/PER HT/PER
                 (UTC) (F)     (DEG/KT/KT) (MB)    (FT/S) (FT/S)
CHESAPEAKE LIGHT NOT AVBL
64 E VA BEACH    1650   49 60  330/ 19/ 25 1021.0    8/ 7
DUCK             1642   48 56  330/ 18/ 23 1022.2
2 E DUCK         NOT AVBL
OREGON INLET     1642   49 56  330/ 11/ 18 1022.6
13E OREGON INLT  1700      61                N/A     6/ 7   5/ 7
HATTERAS CG      1642   48 57  350/ 16/ 21 1022.2
DIAMOND BUOY     1650   55 74  360/ 17/ 21 1022.2    5/ 8   2/14
CAPE LOOKOUT     1700   49     340/ 11/ 15 1023.4
BEAUFORT LAB     1642   48 56  350/  9/ 12 1022.9
30 SE NEW RVR IN 1608   50 71   20/ 16/ 23 1024.8
30 SE NEW RVR IN NOT AVBL
27 SE WRIGHTSVLE 1608   49 69   40/ 14/ 21 1024.6
5 SE WRIGHTSVLE  1608   46 63   30/ 14/ 23 1025.2
225 S CAPE HAT   1650   65 74  350/ 14/ 17 1020.3    5/ 6   3/11
41 SE CHARLESTON 1650   58 75   30/ 16/ 19 1023.6    4/ 5   2/ 9

$$




USA.gov is the U.S. government's official web portal to all federal, state and local government web resources and services.